Weather History for Winslow, AZ

Change the Weather History Date:

Wednesday, November 21, 2012

  Actual Average Record
Temperature  
Mean Temperature 49 °F 42 °F  
Max Temperature 69 °F 57 °F 74 °F (1927)
Min Temperature 29 °F 26 °F 7 °F (1956)
Degree Days  
Heating Degree Days 16 23  
Month to date heating degree days 375 401  
Since 1 July heating degree days 599 707  
Cooling Degree Days 0 0  
Month to date cooling degree days 0 0  
Year to date cooling degree days 1442 1208  
Moisture  
Dew Point 21 °F    
Average Humidity 37    
Maximum Humidity 53    
Minimum Humidity 20    
Precipitation  
Precipitation 0.00 in 0.01 in 0.35 in (2004)
Month to date precipitation 0.27 0.35  
Year to date precipitation 5.14 6.29  
Sea Level Pressure  
Sea Level Pressure 30.12 in    
Wind  
Wind Speed 5 mph (SSE)    
Max Wind Speed 14 mph    
Max Gust Speed 18 mph    
Visibility 10 miles    
Events      
T = Trace of Precipitation, MM = Missing Value Source: NWS Daily Summary

Daily Weather History Graph

Daily Weather History Graph

Search for Another Location

Airport:

Trip Planner

Search our weather history database for the weather conditions in past years. The results will help you decide how hot, cold, wet, or windy it might be!

Date:

Astronomy

Nov. 21, 2012 Rise Set
Actual Time 7:03 AM MST 5:13 PM MST
Civil Twilight 6:36 AM MST 5:41 PM MST
Nautical Twilight 6:05 AM MST 6:11 PM MST
Astronomical Twilight 5:35 AM MST 6:42 PM MST
Moon 1:19 PM MST (11/21) 12:40 AM MST (11/21)
Length of Visible Light 11h 04m
Length of Day
10h 10m
Waxing Gibbous, 62% of the Moon is Illuminated
Nov 21
Waxing Gibbous
Nov 28
Full
Dec 6
Last Quarter
Dec 13
New
Dec 19
First Quarter

Hourly Weather History & Observations

Time (MST) Temp. Windchill Dew Point Humidity Pressure Visibility Wind Dir Wind Speed Gust Speed Precip Events Conditions
12:56 AM 30.0 °F - 12.9 °F 49% 30.18 in 10.0 mi Calm Calm - N/A   Clear
1:56 AM 30.9 °F 27.5 °F 15.1 °F 52% 30.16 in 10.0 mi SE 3.5 mph - N/A   Clear
2:56 AM 32.0 °F 27.5 °F 12.9 °F 45% 30.14 in 10.0 mi SE 4.6 mph - N/A   Clear
3:56 AM 33.1 °F 27.7 °F 14.0 °F 46% 30.13 in 10.0 mi SE 5.8 mph - N/A   Clear
4:56 AM 32.0 °F 27.5 °F 14.0 °F 48% 30.20 in 10.0 mi SE 4.6 mph - N/A   Clear
5:56 AM 35.1 °F 28.6 °F 15.1 °F 44% 30.17 in 10.0 mi ESE 8.1 mph - N/A   Clear
6:56 AM 35.1 °F 27.4 °F 15.1 °F 44% 30.21 in 10.0 mi SE 10.4 mph - N/A   Clear
7:56 AM 37.0 °F 31.0 °F 15.1 °F 41% 30.24 in 10.0 mi SE 8.1 mph - N/A   Clear
8:56 AM 41.0 °F 38.0 °F 17.1 °F 38% 30.23 in 10.0 mi ESE 4.6 mph - N/A   Clear
9:56 AM 46.9 °F - 17.1 °F 30% 30.22 in 10.0 mi East 5.8 mph - N/A   Clear
10:56 AM 54.0 °F - 19.9 °F 26% 30.18 in 10.0 mi SE 8.1 mph - N/A   Clear
11:56 AM 57.9 °F - 23.0 °F 26% 30.14 in 10.0 mi Variable 3.5 mph - N/A   Clear
12:56 PM 64.4 °F - 26.6 °F 24% 30.14 in 10.0 mi Variable 3.5 mph - N/A   Clear
1:56 PM 64.9 °F - 28.9 °F 26% 30.05 in 10.0 mi Calm Calm - N/A   Clear
2:56 PM 68.0 °F - 28.0 °F 22% 30.01 in 10.0 mi Calm Calm - N/A   Clear
3:56 PM 68.0 °F - 28.0 °F 22% 30.00 in 10.0 mi Calm Calm - N/A   Clear
4:56 PM 64.9 °F - 23.0 °F 20% 30.01 in 10.0 mi SSW 8.1 mph - N/A   Clear
5:56 PM 60.1 °F - 25.0 °F 26% 30.05 in 10.0 mi WNW 10.4 mph - N/A   Clear
6:56 PM 48.9 °F - 23.0 °F 36% 30.11 in 10.0 mi WSW 8.1 mph - N/A   Clear
7:56 PM 46.9 °F - 24.1 °F 41% 30.11 in 10.0 mi SSW 6.9 mph - N/A   Clear
8:56 PM 48.0 °F - 27.0 °F 44% 30.09 in 10.0 mi SSW 8.1 mph - N/A   Clear
9:56 PM 44.1 °F - 27.0 °F 51% 30.09 in 10.0 mi Calm Calm - N/A   Clear
10:56 PM 42.1 °F 40.2 °F 27.0 °F 55% 30.09 in 10.0 mi SW 3.5 mph - N/A   Clear
11:56 PM 37.9 °F - 25.0 °F 60% 30.09 in 10.0 mi Calm Calm - N/A   Clear